Location: Unspecified
(53.1008°N, 0.0000°E)
Time: 04:34:31
(UTC+00:00)

AEROCUBE 2 - Visible Passes

Search period start: 04 April 2026 00:00
Search period end: 14 April 2026 00:00
Orbit: 622 x 722 km, 98.4° (Epoch: 28 March)

Date Brightness Start Highest point End Pass type
(mag) Time Alt. Az. Time Alt. Az. Time Alt. Az.
4 Apr ? 04:37:55 10° NNE 04:42:28 59° ESE 04:46:50 10° S visible
5 Apr ? 03:35:10 10° NE 03:38:11 17° E 03:41:08 10° SE visible
6 Apr ? 04:07:47 10° NNE 04:11:53 32° E 04:15:51 10° SSE visible
7 Apr ? 04:40:54 10° NNE 04:45:25 62° ESE 04:49:47 10° S visible
8 Apr ? 03:38:04 10° NE 03:41:09 18° E 03:44:10 10° SE visible
9 Apr ? 04:10:44 10° NNE 04:14:50 33° E 04:18:49 10° SSE visible
11 Apr ? 03:40:58 10° NE 03:44:06 19° E 03:47:11 10° SE visible
12 Apr ? 04:13:39 10° NNE 04:17:45 35° E 04:21:45 10° SSE visible
